Location: Naloco
(16.5478°S, 37.1017°E)
Time: 00:32:57
(UTC+00:00)

Cosmos 1441 Rocket - Pass Details

Date: 13 August 2020
Orbit: 497 x 540 km, 81.1° (Epoch: 23 September)

Event Time Altitude Azimuth Distance (km) Brightness Sun altitude
Rises 16:29:44 0° 185° (S) 2,693 6.8 -16.6°
Reaches altitude 10° 16:31:55 10° 183° (S) 1,791 5.9 -17.1°
Maximum altitude 16:35:51 79° 95° (E) 541 3.1 -18.0°
Drops below altitude 10° 16:39:42 10° 9° (N) 1,745 5.9 -18.9°
Sets 16:41:48 0° 8° (N) 2,618 6.8 -19.4°
